PA3DZX-13 Weather Reports


time (UTC)temp
C
wind
direction
speed
KPH
gust
KPH
rain 1hr
cm
rain 24hr
cm
rain mn
cm
humidity
%
barometer
mb
20260507122546 15 8 12.9 24.1 0.00 0.00 0.00 55 1016.0
20260507121045 13 7 6.4 20.9 0.00 0.00 0.00 57 1016.0
20260507115545 13 12 9.7 17.7 0.00 0.00 0.00 59 1015.9
20260507114044 13 32 9.7 20.9 0.00 0.00 0.00 61 1016.0
20260507112544 13 10 9.7 20.9 0.00 0.00 0.00 62 1016.0
20260507111043 13 30 9.7 20.9 0.00 0.00 0.00 59 1016.0
20260507105544 12 344 9.7 20.9 0.00 0.00 0.00 63 1015.9
20260507104043 12 19 9.7 17.7 0.00 0.00 0.00 65 1015.8
20260507102543 12 36 9.7 20.9 0.00 0.00 0.00 65 1015.7
20260507101042 12 21 12.9 20.9 0.00 0.00 0.00 65 1015.6
20260507095542 11 22 9.7 20.9 0.00 0.00 0.00 65 1015.6
20260507094042 11 14 9.7 17.7 0.00 0.00 0.00 67 1015.5
20260507092543 11 14 9.7 17.7 0.00 0.00 0.00 69 1015.4
20260507091042 11 0 9.7 17.7 0.00 0.00 0.00 70 1015.3
20260507085541 11 356 9.7 17.7 0.00 0.00 0.00 73 1015.2
20260507084040 10 359 9.7 12.9 0.00 0.00 0.00 74 1015.2
20260507082540 10 8 6.4 17.7 0.00 0.00 0.00 74 1015.1
20260507081039 10 2 9.7 17.7 0.00 0.00 0.00 78 1015.0
20260507075540 10 10 6.4 17.7 0.00 0.00 0.00 78 1014.9
20260507074039 10 342 6.4 12.9 0.00 0.00 0.00 83 1014.8
20260507072539 8 350 6.4 9.7 0.00 0.00 0.00 82 1014.8
20260507071038 8 5 6.4 9.7 0.00 0.00 0.00 82 1014.8
20260507065538 7 24 6.4 9.7 0.00 0.00 0.00 83 1014.7
20260507064037 7 19 6.4 9.7 0.00 0.00 0.00 86 1014.6
20260507062536 6 2 6.4 9.7 0.00 0.00 0.00 88 1014.4
20260507061035 5 330 0.0 3.2 0.00 0.00 0.00 92 1014.3
20260507055535 5 42 0.0 3.2 0.00 0.00 0.00 96 1014.2
20260507054035 5 350 0.0 3.2 0.00 0.00 0.00 98 1014.1
20260507052534 3 315 0.0 3.2 0.00 0.00 0.00 99 1014.0
20260507051033 2 314 0.0 3.2 0.00 0.00 0.00 99 1014.0
20260507045533 2 306 0.0 3.2 0.00 0.00 0.00 99 1013.7
20260507044032 2 306 0.0 0.0 0.00 0.00 0.00 99 1013.4
20260507042533 2 306 0.0 3.2 0.00 0.00 0.00 99 1013.4
20260507041031 2 306 0.0 3.2 0.00 0.00 0.00 99 1013.4
20260507035531 2 320 0.0 3.2 0.00 0.00 0.00 99 1013.4
20260507034030 3 327 0.0 3.2 0.00 0.00 0.00 98 1013.2
20260507032531 3 322 0.0 3.2 0.00 0.00 0.00 97 1013.2
20260507031030 5 325 3.2 3.2 0.00 0.00 0.00 96 1013.0
20260507025529 5 334 3.2 6.4 0.00 0.00 0.00 93 1013.0
20260507024030 5 337 3.2 6.4 0.00 0.00 0.00 93 1012.9
20260507022530 5 343 3.2 9.7 0.00 0.00 0.00 90 1012.8
20260507021029 5 339 6.4 9.7 0.00 0.00 0.00 91 1012.9
20260507015529 5 329 6.4 9.7 0.00 0.00 0.00 90 1012.8
20260507014029 6 332 6.4 9.7 0.00 0.00 0.00 90 1012.6
20260507012529 6 338 6.4 9.7 0.00 0.00 0.00 90 1012.5
20260507011028 6 339 6.4 9.7 0.00 0.00 0.00 90 1012.4
20260507005528 6 347 3.2 9.7 0.00 0.00 0.00 88 1012.4
20260507004028 6 341 3.2 9.7 0.00 0.00 0.00 88 1012.3
20260507002529 6 343 3.2 9.7 0.00 0.00 0.00 87 1012.3
20260507001028 6 338 3.2 9.7 0.00 0.00 0.00 86 1012.3
20260506235527 7 342 6.4 12.9 0.00 0.00 0.00 85 1012.2
20260506234027 7 340 6.4 12.9 0.00 0.00 0.00 85 1012.2
20260506232526 7 342 9.7 12.9 0.00 0.00 0.00 83 1012.1
20260506231025 7 340 6.4 12.9 0.00 0.00 0.00 83 1012.0
20260506225525 8 346 6.4 17.7 0.00 0.00 0.00 83 1012.0
20260506224025 8 333 9.7 17.7 0.00 0.00 0.00 81 1011.9
20260506222525 8 329 6.4 12.9 0.00 0.00 0.00 82 1011.9
20260506221025 7 333 3.2 6.4 0.00 0.00 0.00 83 1011.8
20260506215525 7 328 6.4 6.4 0.00 0.00 0.00 83 1011.7
20260506214025 8 332 6.4 6.4 0.00 0.00 0.00 81 1011.7
20260506212525 8 338 6.4 6.4 0.00 0.00 0.00 80 1011.6
20260506211025 8 346 3.2 9.7 0.00 0.00 0.00 80 1011.6
20260506205525 8 358 6.4 12.9 0.00 0.00 0.00 78 1011.6
20260506204024 8 11 9.7 17.7 0.00 0.00 0.00 76 1011.4
20260506202524 8 13 9.7 12.9 0.00 0.00 0.00 75 1011.4
20260506201024 8 7 9.7 17.7 0.00 0.00 0.00 75 1011.3
20260506195524 8 15 9.7 17.7 0.00 0.00 0.00 75 1011.1
20260506194023 8 16 9.7 17.7 0.00 0.00 0.00 74 1011.0
20260506192523 8 17 9.7 17.7 0.00 0.00 0.00 76 1010.9
20260506191023 8 23 6.4 12.9 0.00 0.00 0.00 78 1010.7
20260506185522 10 36 9.7 20.9 0.00 0.00 0.00 74 1010.5
20260506184022 10 33 9.7 20.9 0.00 0.00 0.00 74 1010.4
20260506182522 10 31 12.9 24.1 0.00 0.00 0.00 72 1010.2
20260506181021 10 43 12.9 24.1 0.00 0.00 0.00 70 1009.9
20260506175521 10 44 9.7 17.7 0.00 0.00 0.00 70 1009.8
20260506174021 10 47 9.7 20.9 0.00 0.00 0.00 71 1009.8
20260506172521 10 47 12.9 20.9 0.00 0.00 0.00 72 1009.8
20260506171020 10 64 9.7 20.9 0.00 0.00 0.00 70 1009.7
20260506165520 10 61 12.9 27.4 0.00 0.00 0.00 73 1009.8
20260506164020 10 47 12.9 24.1 0.00 0.00 0.00 75 1009.8
20260506162520 10 48 12.9 27.4 0.00 0.00 0.00 75 1009.9
20260506161019 10 42 20.9 32.2 0.00 0.00 0.00 75 1009.9
20260506155519 10 30 20.9 35.4 0.00 0.00 0.00 76 1009.8
20260506154018 8 32 24.1 35.4 0.00 0.00 0.00 79 1009.7
20260506152518 8 39 17.7 27.4 0.00 0.00 0.00 82 1009.5
20260506151018 8 33 17.7 27.4 0.00 0.00 0.00 81 1009.4
20260506145518 8 25 24.1 32.2 0.00 0.00 0.00 81 1009.5
20260506144017 10 30 20.9 32.2 0.00 0.00 0.00 83 1009.3
20260506142517 8 25 12.9 24.1 0.00 0.00 0.00 88 1009.3
20260506141017 8 25 12.9 24.1 0.00 0.00 0.00 88 1009.3
20260506135516 8 19 17.7 27.4 0.00 0.00 0.00 88 1009.2
20260506134017 8 19 17.7 27.4 0.00 0.00 0.00 89 1009.2
20260506132516 8 21 17.7 27.4 0.00 0.00 0.00 86 1009.2
20260506131014 8 20 17.7 24.1 0.00 0.00 0.00 87 1009.2
20260506125514 8 22 20.9 27.4 0.00 0.00 0.00 86 1009.1
20260506124014 8 23 17.7 32.2 0.00 0.00 0.00 87 1009.0